CE3JSG-13 Weather Reports


Display with metric or nautical units.
time (UTC)temp
F
wind
direction
speed
MPH
gust
MPH
rain 1hr
in
rain 24hr
in
rain mn
in
humidity
%
barometer
mb
20260507134522 58 0.0 0.0 0.00 0.00 0.00 81 1024.2
20260507133823 56 0.0 0.0 0.00 0.00 0.00 88 1025.0
20260507133122 55 0.0 0.0 0.00 0.00 0.00 92 1026.0
20260507132423 55 0.0 0.0 0.00 0.00 0.00 92 1027.3
20260507131722 56 0.0 0.0 0.00 0.00 0.00 88 1024.9
20260507131023 56 0.0 0.0 0.00 0.00 0.00 93 1025.1
20260507130323 55 0.0 0.0 0.00 0.00 0.00 96 1026.2
20260507125623 55 0.0 0.0 0.00 0.00 0.00 94 1025.4
20260507124923 55 0.0 0.0 0.00 0.00 0.00 96 1025.9
20260507124223 55 0.0 0.0 0.00 0.00 0.00 97 1024.9
20260507123523 54 0.0 0.0 0.00 0.00 0.00 10 1025.7
20260507122823 54 0.0 0.0 0.00 0.00 0.00 10 1025.4
20260507122123 53 0.0 0.0 0.00 0.00 0.00 10 1025.6
20260507121423 53 0.0 0.0 0.00 0.00 0.00 10 1026.2
20260507120724 54 0.0 0.0 0.00 0.00 0.00 10 1025.3
20260507120023 53 0.0 0.0 0.00 0.00 0.00 10 1025.4
20260507115323 53 0.0 0.0 0.00 0.00 0.00 10 1025.5
20260507114623 53 0.0 0.0 0.00 0.00 0.00 99 1025.2
20260507113922 53 0.0 0.0 0.00 0.00 0.00 99 1025.7
20260507113223 54 0.0 0.0 0.00 0.00 0.00 96 1026.0
20260507112523 55 0.0 0.0 0.00 0.00 0.00 93 1024.7
20260507111823 54 0.0 0.0 0.00 0.00 0.00 95 1023.8
20260507111123 53 0.0 0.0 0.00 0.00 0.00 10 1024.5
20260507110423 53 0.0 0.0 0.00 0.00 0.00 10 1025.3
20260507105722 53 0.0 0.0 0.00 0.00 0.00 10 1025.8
20260507105023 54 0.0 0.0 0.00 0.00 0.00 98 1025.1
20260507104323 54 0.0 0.0 0.00 0.00 0.00 93 1025.2
20260507103623 55 0.0 0.0 0.00 0.00 0.00 93 1023.8
20260507102922 54 0.0 0.0 0.00 0.00 0.00 96 1024.4
20260507102223 54 0.0 0.0 0.00 0.00 0.00 96 1024.1
20260507101523 54 0.0 0.0 0.00 0.00 0.00 97 1024.5
20260507100823 54 0.0 0.0 0.00 0.00 0.00 98 1024.2
20260507100122 53 0.0 0.0 0.00 0.00 0.00 10 1024.3
20260507095423 53 0.0 0.0 0.00 0.00 0.00 10 1024.3
20260507094722 53 0.0 0.0 0.00 0.00 0.00 99 1024.6
20260507094023 54 0.0 0.0 0.00 0.00 0.00 99 1023.9
20260507093322 53 0.0 0.0 0.00 0.00 0.00 10 1024.6
20260507092623 54 0.0 0.0 0.00 0.00 0.00 97 1024.2
20260507091923 54 0.0 0.0 0.00 0.00 0.00 97 1024.4
20260507091223 54 0.0 0.0 0.00 0.00 0.00 96 1024.3
20260507090523 55 0.0 0.0 0.00 0.00 0.00 94 1024.0
20260507085823 55 0.0 0.0 0.00 0.00 0.00 93 1023.1
20260507085123 55 0.0 0.0 0.00 0.00 0.00 95 1023.3
20260507084423 55 0.0 0.0 0.00 0.00 0.00 95 1023.1
20260507083723 54 0.0 0.0 0.00 0.00 0.00 97 1023.2
20260507083023 54 0.0 0.0 0.00 0.00 0.00 10 1022.7
20260507082323 53 0.0 0.0 0.00 0.00 0.00 10 1023.8
20260507081623 53 0.0 0.0 0.00 0.00 0.00 10 1022.8
20260507080923 53 0.0 0.0 0.00 0.00 0.00 10 1023.7
20260507080223 53 0.0 0.0 0.00 0.00 0.00 10 1023.5
20260507075523 52 0.0 0.0 0.00 0.00 0.00 10 1024.0
20260507074823 53 0.0 0.0 0.00 0.00 0.00 10 1023.7
20260507074123 53 0.0 0.0 0.00 0.00 0.00 10 1023.8
20260507073423 53 0.0 0.0 0.00 0.00 0.00 10 1023.6
20260507072723 53 0.0 0.0 0.00 0.00 0.00 10 1023.0
20260507072023 52 0.0 0.0 0.00 0.00 0.00 10 1023.6
20260507071322 52 0.0 0.0 0.00 0.00 0.00 10 1023.7
20260507070623 52 0.0 0.0 0.00 0.00 0.00 10 1023.3
20260507065923 52 0.0 0.0 0.00 0.00 0.00 10 1024.0
20260507065222 52 0.0 0.0 0.00 0.00 0.00 10 1023.5
20260507064522 52 0.0 0.0 0.00 0.00 0.00 10 1023.6
20260507063823 52 0.0 0.0 0.00 0.00 0.00 10 1023.8
20260507063123 52 0.0 0.0 0.00 0.00 0.00 10 1023.4
20260507062423 52 0.0 0.0 0.00 0.00 0.00 10 1023.9
20260507061723 52 0.0 0.0 0.00 0.00 0.00 10 1023.8
20260507061023 52 0.0 0.0 0.00 0.00 0.00 10 1023.9
20260507060323 52 0.0 0.0 0.00 0.00 0.00 10 1023.9
20260507055623 53 0.0 0.0 0.00 0.00 0.00 10 1023.9
20260507054923 53 0.0 0.0 0.00 0.00 0.00 10 1023.6
20260507054223 53 0.0 0.0 0.00 0.00 0.00 10 1023.8
20260507053523 53 0.0 0.0 0.00 0.00 0.00 10 1023.3
20260507052823 53 0.0 0.0 0.00 0.00 0.00 10 1023.1
20260507052122 53 0.0 0.0 0.00 0.00 0.00 10 1022.8
20260507051422 53 0.0 0.0 0.00 0.00 0.00 10 1023.0
20260507050723 53 0.0 0.0 0.00 0.00 0.00 10 1023.3
20260507050023 53 0.0 0.0 0.00 0.00 0.00 10 1022.9
20260507045323 53 0.0 0.0 0.00 0.00 0.00 10 1023.0
20260507044623 53 0.0 0.0 0.00 0.00 0.00 10 1023.3
20260507043923 54 0.0 0.0 0.00 0.00 0.00 10 1023.3
20260507043223 54 0.0 0.0 0.00 0.00 0.00 10 1023.3
20260507042523 54 0.0 0.0 0.00 0.00 0.00 10 1023.1
20260507041823 54 0.0 0.0 0.00 0.00 0.00 10 1022.8
20260507041123 54 0.0 0.0 0.00 0.00 0.00 10 1023.1
20260507040423 54 0.0 0.0 0.00 0.00 0.00 10 1023.2
20260507035723 54 0.0 0.0 0.00 0.00 0.00 10 1023.0
20260507035023 54 0.0 0.0 0.00 0.00 0.00 10 1023.0
20260507034323 55 0.0 0.0 0.00 0.00 0.00 10 1023.0
20260507033622 55 0.0 0.0 0.00 0.00 0.00 10 1022.7
20260507032923 55 0.0 0.0 0.00 0.00 0.00 10 1022.4
20260507032222 55 0.0 0.0 0.00 0.00 0.00 10 1022.6
20260507031522 55 0.0 0.0 0.00 0.00 0.00 10 1022.8
20260507030823 55 0.0 0.0 0.00 0.00 0.00 10 1023.2
20260507030123 55 0.0 0.0 0.00 0.00 0.00 10 1022.4
20260507025422 55 0.0 0.0 0.00 0.00 0.00 10 1022.8
20260507024722 55 0.0 0.0 0.00 0.00 0.00 10 1022.0
20260507024023 55 0.0 0.0 0.00 0.00 0.00 10 1022.1
20260507023322 55 0.0 0.0 0.00 0.00 0.00 10 1022.4
20260507022623 55 0.0 0.0 0.00 0.00 0.00 10 1021.6
20260507021922 55 0.0 0.0 0.00 0.00 0.00 10 1022.0
20260507021223 55 0.0 0.0 0.00 0.00 0.00 10 1021.8
20260507020523 55 0.0 0.0 0.00 0.00 0.00 10 1021.6
20260507015823 55 0.0 0.0 0.00 0.00 0.00 10 1021.9
20260507015123 55 0.0 0.0 0.00 0.00 0.00 10 1021.6
20260507014422 54 0.0 0.0 0.00 0.00 0.00 10 1021.8
20260507013722 54 0.0 0.0 0.00 0.00 0.00 10 1022.1
20260507013022 55 0.0 0.0 0.00 0.00 0.00 10 1022.1
20260507012322 55 0.0 0.0 0.00 0.00 0.00 10 1021.9
20260507011623 55 0.0 0.0 0.00 0.00 0.00 10 1021.9
20260507010923 55 0.0 0.0 0.00 0.00 0.00 10 1021.6
20260507010222 55 0.0 0.0 0.00 0.00 0.00 10 1021.6
20260507005523 55 0.0 0.0 0.00 0.00 0.00 10 1021.8
20260507004822 55 0.0 0.0 0.00 0.00 0.00 10 1021.7
20260507004123 55 0.0 0.0 0.00 0.00 0.00 10 1021.9
20260507003423 56 0.0 0.0 0.00 0.00 0.00 10 1021.7
20260507002722 56 0.0 0.0 0.00 0.00 0.00 10 1021.0
20260507002023 56 0.0 0.0 0.00 0.00 0.00 10 1021.0
20260507001323 56 0.0 0.0 0.00 0.00 0.00 10 1020.6
20260507000623 56 0.0 0.0 0.00 0.00 0.00 10 1021.0
20260506235922 56 0.0 0.0 0.00 0.00 0.00 10 1020.8
20260506235223 56 0.0 0.0 0.00 0.00 0.00 10 1021.0
20260506234522 56 0.0 0.0 0.00 0.00 0.00 10 1020.9
20260506233823 56 0.0 0.0 0.00 0.00 0.00 10 1021.2
20260506233123 56 0.0 0.0 0.00 0.00 0.00 10 1020.7
20260506232422 56 0.0 0.0 0.00 0.00 0.00 10 1020.4
20260506231722 56 0.0 0.0 0.00 0.00 0.00 10 1020.7
20260506231023 56 0.0 0.0 0.00 0.00 0.00 10 1020.1
20260506230323 56 0.0 0.0 0.00 0.00 0.00 10 1038.0